Hourly Data Report for October 24, 2019

WOODSTOCK NEWBRIDGE
NEW BRUNSWICK
Current Station Operator: ECCC - MSC

46°09'08.000" N
67°32'34.000" W
154.00 m
8105603
71606
EWD

Download Data

Hourly Data (October 2019)
Hourly Data Report for October 24, 2019
TIME Temp Definition
°C
Dew Point Definition
°C
Rel Hum Definition
%
Wind Dir Definition
10's deg

Wind Spd Definition
km/h
Visibility Definition
km
Stn Press Definition
kPa
Hmdx Definition


Wind Chill Definition


Weather Definition


00:00 5.7 4.9 95 23 6   99.43     LegendNANA
01:00 5.0 4.8 99 21 7   99.50     LegendNANA
02:00 4.3 3.8 97 20 7   99.60     LegendNANA
03:00 4.6 3.8 95 19 7   99.67     LegendNANA
04:00 5.3 4.3 93 20 9   99.74     LegendNANA
05:00 5.0 4.0 93 20 8   99.83     LegendNANA
06:00 3.6 2.6 93 16 4   99.96     LegendNANA
07:00 1.9 1.4 97 15 5   100.05     LegendNANA
08:00 4.4 3.5 94 16 4   100.14     LegendNANA
09:00 7.9 4.8 81 21 5   100.15     LegendNANA
10:00 9.8 4.9 71 20 11   100.17     LegendNANA
11:00 11.5 5.0 64 22 11   100.17     LegendNANA
12:00 12.2 4.9 61 21 14   100.14     LegendNANA
13:00 13.1 4.3 55 22 16   100.08     LegendNANA
14:00 13.2 3.7 52 20 14   100.10     LegendNANA
15:00 14.0 3.5 49 20 13   100.09     LegendNANA
16:00 13.4 3.1 50 17 13   100.04     LegendNANA
17:00 12.5 3.3 54 17 6   100.05     LegendNANA
18:00 11.3 3.4 58 15 7   100.05     LegendNANA
19:00 10.4 3.3 61 16 8   100.05     LegendNANA
20:00 10.5 3.3 61 17 9   100.08     LegendNANA
21:00 10.0 3.5 64 20 8   100.14     LegendNANA
22:00 8.0 3.7 74 18 3   100.21     LegendNANA
23:00 9.1 4.5 73 21 5   100.25     LegendNANA

Notes on Data Quality.

Legend

  • E = Estimated
  • M = Missing
  • NA = Not Available*
  • [empty] = Indicates an unobserved value
Date modified: